Time,TemperatureF,DewpointF,PressureIn,WindDirection,WindDirectionDegrees,WindSpeedMPH,WindSpeedGustMPH,Humidity,HourlyPrecipIn,Conditions,Clouds,dailyrainin,SoftwareType,DateUTC
2013-01-02 00:29:00,24.1,14.0,30.19,West,265,0.0,2.0,65,0.00,CLR,,0.00,WeatherDisplay:10.37,2013-01-02 06:29:00,
2013-01-02 00:59:00,24.4,14.0,30.19,West,265,0.0,3.0,64,0.00,CLR,,0.00,WeatherDisplay:10.37,2013-01-02 06:59:00,
2013-01-02 01:29:00,24.5,14.1,30.17,West,265,0.0,3.0,64,0.00,CLR,,0.00,WeatherDisplay:10.37,2013-01-02 07:29:00,
2013-01-02 01:59:00,23.5,14.1,30.18,West,265,0.0,2.0,67,0.00,CLR,,0.00,WeatherDisplay:10.37,2013-01-02 07:59:00,
2013-01-02 02:29:00,23.2,14.2,30.18,West,265,1.0,2.0,68,0.00,CLR,,0.00,WeatherDisplay:10.37,2013-01-02 08:29:00,
2013-01-02 02:59:00,23.0,14.3,30.18,West,265,0.0,1.0,69,0.00,CLR,,0.00,WeatherDisplay:10.37,2013-01-02 08:59:00,
2013-01-02 03:29:00,22.3,14.3,30.19,West,265,0.0,2.0,71,0.00,CLR,,0.00,WeatherDisplay:10.37,2013-01-02 09:29:00,
2013-01-02 03:59:00,21.6,14.0,30.19,West,265,0.0,2.0,72,0.00,CLR,,0.00,WeatherDisplay:10.37,2013-01-02 09:59:00,
2013-01-02 04:29:00,21.3,14.3,30.21,West,265,0.0,3.0,74,0.00,CLR,,0.00,WeatherDisplay:10.37,2013-01-02 10:29:00,
2013-01-02 04:59:00,20.0,12.7,30.20,West,265,0.0,2.0,73,0.00,CLR,,0.00,WeatherDisplay:10.37,2013-01-02 10:59:00,
2013-01-02 05:29:00,18.4,11.8,30.27,West,265,0.0,2.0,75,0.00,CLR,,0.00,WeatherDisplay:10.37,2013-01-02 11:29:00,
2013-01-02 05:59:00,17.3,11.3,30.27,West,265,0.0,2.0,77,0.00,CLR,,0.00,WeatherDisplay:10.37,2013-01-02 11:59:00,
2013-01-02 06:29:00,16.5,10.8,30.32,West,265,0.0,2.0,78,0.00,CLR,,0.00,WeatherDisplay:10.37,2013-01-02 12:29:00,
2013-01-02 06:59:00,15.9,10.8,30.34,West,265,0.0,2.0,80,0.00,CLR,,0.00,WeatherDisplay:10.37,2013-01-02 12:59:00,
2013-01-02 07:29:00,15.6,10.5,30.37,West,265,0.0,2.0,80,0.00,CLR,,0.00,WeatherDisplay:10.37,2013-01-02 13:29:00,
2013-01-02 07:59:00,15.1,10.3,30.37,West,265,0.0,2.0,81,0.00,CLR,,0.00,WeatherDisplay:10.37,2013-01-02 13:59:00,
2013-01-02 08:29:00,15.4,11.2,30.39,West,265,0.0,2.0,83,0.00,CLR,,0.00,WeatherDisplay:10.37,2013-01-02 14:29:00,
2013-01-02 08:59:00,20.4,15.3,30.37,West,265,0.0,2.0,80,0.00,CLR,,0.00,WeatherDisplay:10.37,2013-01-02 14:59:00,
2013-01-02 09:30:00,30.0,18.2,30.29,West,265,0.0,1.0,61,0.00,CLR,,0.00,WeatherDisplay:10.37,2013-01-02 15:30:00,
2013-01-02 09:59:00,38.9,7.7,30.25,SE,127,5.0,9.0,27,0.00,CLR,,0.00,WeatherDisplay:10.37,2013-01-02 15:59:00,
2013-01-02 10:30:00,39.5,9.0,30.23,SE,143,6.0,10.0,28,0.00,CLR,,0.00,WeatherDisplay:10.37,2013-01-02 16:30:00,
2013-01-02 11:00:00,42.2,11.4,30.22,SE,138,5.0,10.0,28,0.00,CLR,,0.00,WeatherDisplay:10.37,2013-01-02 17:00:00,
2013-01-02 11:30:00,43.6,12.6,30.19,SE,142,3.0,12.0,28,0.00,CLR,,0.00,WeatherDisplay:10.37,2013-01-02 17:30:00,
2013-01-02 12:00:00,45.2,13.9,30.17,SE,143,3.0,9.0,28,0.00,CLR,,0.00,WeatherDisplay:10.37,2013-01-02 18:00:00,
2013-01-02 12:30:00,47.0,14.7,30.15,SE,138,5.0,10.0,27,0.00,CLR,,0.00,WeatherDisplay:10.37,2013-01-02 18:30:00,
2013-01-02 13:00:00,47.4,15.9,30.13,SE,145,5.0,12.0,28,0.00,CLR,,0.00,WeatherDisplay:10.37,2013-01-02 19:00:00,
2013-01-02 13:30:00,48.6,16.9,30.10,South,175,5.0,12.0,28,0.00,CLR,,0.00,WeatherDisplay:10.37,2013-01-02 19:30:00,
2013-01-02 14:00:00,49.5,16.9,30.08,ESE,122,5.0,8.0,27,0.00,CLR,,0.00,WeatherDisplay:10.37,2013-01-02 20:00:00,
2013-01-02 14:30:00,50.8,19.6,30.06,SSW,198,1.0,12.0,29,0.00,CLR,,0.00,WeatherDisplay:10.37,2013-01-02 20:30:00,
2013-01-02 15:00:00,49.8,19.6,30.07,SSE,149,1.0,16.0,30,0.00,CLR,,0.00,WeatherDisplay:10.37,2013-01-02 21:00:00,
2013-01-02 15:30:00,50.5,18.5,30.06,SW,231,1.0,17.0,28,0.00,CLR,,0.00,WeatherDisplay:10.37,2013-01-02 21:30:00,
2013-01-02 16:00:00,48.7,19.4,30.08,SE,125,5.0,10.0,31,0.00,CLR,,0.00,WeatherDisplay:10.37,2013-01-02 22:00:00,
2013-01-02 16:30:00,44.2,20.2,30.14,NE,39,3.0,12.0,38,0.00,CLR,,0.00,WeatherDisplay:10.37,2013-01-02 22:30:00,
2013-01-02 17:00:00,42.3,20.2,30.15,East,80,3.0,7.0,41,0.00,CLR,,0.00,WeatherDisplay:10.37,2013-01-02 23:00:00,
2013-01-02 17:30:00,39.3,19.7,30.19,ENE,73,3.0,7.0,45,0.00,CLR,,0.00,WeatherDisplay:10.37,2013-01-02 23:30:00,
2013-01-02 18:00:00,35.4,19.5,30.23,ENE,74,2.0,7.0,52,0.00,CLR,,0.00,WeatherDisplay:10.37,2013-01-03 00:00:00,
2013-01-02 18:30:00,32.5,18.9,30.27,ENE,75,0.0,4.0,57,0.00,CLR,,0.00,WeatherDisplay:10.37,2013-01-03 00:30:00,
2013-01-02 19:00:00,30.0,18.9,30.29,ENE,75,2.0,5.0,63,0.00,CLR,,0.00,WeatherDisplay:10.37,2013-01-03 01:00:00,
2013-01-02 19:30:00,27.3,17.1,30.33,ENE,75,0.0,3.0,65,0.00,CLR,,0.00,WeatherDisplay:10.37,2013-01-03 01:30:00,
2013-01-02 20:00:00,24.5,16.4,30.36,ENE,75,0.0,1.0,71,0.00,CLR,,0.00,WeatherDisplay:10.37,2013-01-03 02:00:00,
2013-01-02 20:30:00,23.5,16.4,30.30,ENE,75,0.0,0.0,74,0.00,CLR,,0.00,WeatherDisplay:10.37,2013-01-03 02:30:00,
2013-01-02 21:00:00,26.3,19.5,30.29,ENE,75,0.0,4.0,75,0.00,CLR,,0.00,WeatherDisplay:10.37,2013-01-03 03:00:00,
2013-01-02 22:00:00,29.7,20.4,30.17,ESE,103,2.0,6.0,68,0.00,CLR,,0.00,WeatherDisplay:10.37,2013-01-03 04:00:00,
2013-01-02 22:30:00,29.0,19.8,30.17,ESE,103,0.0,6.0,68,0.00,CLR,,0.00,WeatherDisplay:10.37,2013-01-03 04:30:00,
2013-01-02 23:00:00,25.1,18.0,30.20,ESE,103,1.0,2.0,74,0.00,CLR,,0.00,WeatherDisplay:10.37,2013-01-03 05:00:00,
2013-01-02 23:29:00,22.7,17.2,30.19,ESE,103,0.0,2.0,79,0.00,CLR,,0.00,WeatherDisplay:10.37,2013-01-03 05:29:00,
2013-01-02 23:59:00,22.7,18.0,30.19,ESE,103,0.0,2.0,82,0.00,CLR,,0.00,WeatherDisplay:10.37,2013-01-03 05:59:00,